Terminal Aerodrome Forecast
Issued by NWS

Home | Current Version | Previous Version | Text Only | Print | Product List | Glossary On
Versions: 1 2 3 4 5 6 7 8 9 10 11 12 13 14 15 16 17 18 19
000
FTUS44 KJAN 181159
TAFHKS
TAF
KHKS 181159Z 1812/1912 VRB03KT P6SM OVC004
     FM181600 09004KT P6SM BKN015 OVC025
     FM181900 09007KT P6SM BKN025 OVC070
     FM190400 14008KT P6SM BKN015 OVC035=

USA.gov is the U.S. government's official web portal to all federal, state and local government web resources and services.